Terminal Aerodrome Forecast
Issued by NWS North Platte, NE

Home | Current Version | Previous Version | Text Only | Print | Product List | Glossary On
Versions: 1 2 3 4 5 6 7 8 9 10 11 12 13 14 15 16 17 18 19
000
FTUS43 KLBF 010500
TAFVTN
TAF
KVTN 010520Z 0106/0206 17015G22KT P6SM SCT250
     FM011500 18021G32KT P6SM SCT250
     FM020000 18015KT P6SM BKN200=

USA.gov is the U.S. government's official web portal to all federal, state and local government web resources and services.